• In Uzbekistan
  • List of Countries
  • For 7 days
  • Water Temperature
  • Weather Map
  • Weather Widgets
  • user-avatar
    Login

    Hourly Weather Nashavar

    Today, 29 January, Wednesday

    Time Temperature Precipitation Wind Pressure Humidity
    00:00 +12°C° 0.1 mm 1 mps 727 mmHg 73%
    01:00 +12°C° 0.1 mm 1 mps 728 mmHg 75%
    02:00 +12°C° 0.1 mm 1 mps 728 mmHg 76%
    03:00 +11°C° 0.1 mm 1 mps 728 mmHg 77%
    04:00 +11°C° 0.1 mm 1 mps 728 mmHg 77%
    05:00 +11°C° 0.1 mm 1 mps 728 mmHg 78%
    06:00 +11°C° 0 mm 1 mps 729 mmHg 78%
    07:00 +11°C° 0 mm 1 mps 730 mmHg 78%
    08:00 +10°C° 0 mm 2 mps 731 mmHg 79%
    09:00 +10°C° 0.3 mm 2 mps 731 mmHg 79%
    10:00 +10°C° 0.3 mm 2 mps 731 mmHg 79%
    11:00 +10°C° 0.3 mm 2 mps 732 mmHg 79%
    12:00 +10°C° 0.8 mm 2 mps 732 mmHg 78%
    13:00 +10°C° 0.8 mm 2 mps 731 mmHg 76%
    14:00 +12°C° 0.8 mm 2 mps 731 mmHg 75%
    15:00 +11°C° 0.5 mm 3 mps 731 mmHg 73%
    16:00 +10°C° 0.5 mm 3 mps 732 mmHg 72%
    17:00 +10°C° 0.5 mm 4 mps 732 mmHg 71%
    18:00 +10°C° 0.1 mm 4 mps 732 mmHg 70%
    19:00 +10°C° 0.1 mm 4 mps 733 mmHg 69%
    20:00 +10°C° 0.1 mm 4 mps 734 mmHg 69%
    21:00 +9°C° 0 mm 3 mps 734 mmHg 68%
    22:00 +9°C° 0 mm 3 mps 734 mmHg 66%
    23:00 +9°C° 0 mm 2 mps 734 mmHg 65%

    Tomorrow, 30 January, Thursday

    Time Temperature Precipitation Wind Pressure Humidity
    00:00 +9°C° 0 mm 2 mps 734 mmHg 64%
    01:00 +9°C° 0 mm 2 mps 734 mmHg 63%
    02:00 +9°C° 0 mm 2 mps 733 mmHg 62%
    03:00 +9°C° 0 mm 2 mps 733 mmHg 62%
    04:00 +8°C° 0 mm 2 mps 733 mmHg 61%
    05:00 +8°C° 0 mm 2 mps 733 mmHg 61%
    06:00 +8°C° 0 mm 2 mps 733 mmHg 60%
    07:00 +8°C° 0 mm 2 mps 733 mmHg 59%
    08:00 +10°C° 0 mm 1 mps 733 mmHg 58%
    09:00 +11°C° 0 mm 1 mps 733 mmHg 50%
    10:00 +13°C° 0 mm 2 mps 733 mmHg 42%
    11:00 +15°C° 0 mm 2 mps 733 mmHg 34%
    12:00 +16°C° 0 mm 1 mps 733 mmHg 33%
    13:00 +16°C° 0 mm 1 mps 732 mmHg 31%
    14:00 +18°C° 0 mm 1 mps 731 mmHg 29%
    15:00 +18°C° 0 mm 1 mps 731 mmHg 32%
    16:00 +16°C° 0 mm 1 mps 731 mmHg 34%
    17:00 +16°C° 0 mm 1 mps 730 mmHg 37%
    18:00 +15°C° 0 mm 1 mps 731 mmHg 39%
    19:00 +14°C° 0 mm 1 mps 731 mmHg 40%
    20:00 +13°C° 0 mm 1 mps 731 mmHg 41%
    21:00 +13°C° 0 mm 1 mps 731 mmHg 42%
    22:00 +12°C° 0 mm 1 mps 731 mmHg 42%
    23:00 +12°C° 0 mm 1 mps 731 mmHg 43%

    Day after tomorrow, 31 January, Friday

    Time Temperature Precipitation Wind Pressure Humidity
    00:00 +12°C° 0 mm 1 mps 730 mmHg 43%
    01:00 +11°C° 0 mm 1 mps 730 mmHg 43%
    02:00 +11°C° 0 mm 1 mps 730 mmHg 43%
    03:00 +11°C° 0 mm 1 mps 729 mmHg 43%
    04:00 +11°C° 0 mm 1 mps 729 mmHg 43%
    05:00 +11°C° 0 mm 1 mps 728 mmHg 43%
    06:00 +11°C° 0 mm 1 mps 729 mmHg 44%
    07:00 +11°C° 0 mm 1 mps 729 mmHg 44%
    08:00 +11°C° 0 mm 1 mps 729 mmHg 45%
    09:00 +13°C° 0 mm 1 mps 729 mmHg 40%
    10:00 +14°C° 0 mm 1 mps 729 mmHg 35%
    11:00 +15°C° 0 mm 1 mps 729 mmHg 30%
    12:00 +16°C° 0 mm 1 mps 729 mmHg 29%
    13:00 +18°C° 0 mm 1 mps 729 mmHg 27%
    14:00 +18°C° 0 mm 1 mps 728 mmHg 26%
    15:00 +18°C° 0 mm 1 mps 728 mmHg 29%
    16:00 +18°C° 0 mm 1 mps 728 mmHg 32%
    17:00 +16°C° 0 mm 1 mps 728 mmHg 34%
    18:00 +15°C° 0 mm 1 mps 729 mmHg 35%
    19:00 +14°C° 0 mm 1 mps 729 mmHg 37%
    20:00 +13°C° 0 mm 1 mps 730 mmHg 38%
    21:00 +13°C° 0 mm 1 mps 730 mmHg 39%
    22:00 +13°C° 0 mm 1 mps 730 mmHg 40%
    23:00 +12°C° 0 mm 1 mps 730 mmHg 41%

    1 February, Saturday

    Time Temperature Precipitation Wind Pressure Humidity
    00:00 +12°C° 0 mm 1 mps 730 mmHg 42%
    01:00 +11°C° 0 mm 1 mps 730 mmHg 44%
    02:00 +11°C° 0 mm 1 mps 731 mmHg 45%
    03:00 +11°C° 0 mm 1 mps 730 mmHg 46%
    04:00 +10°C° 0 mm 1 mps 730 mmHg 46%
    05:00 +10°C° 0 mm 1 mps 730 mmHg 47%
    06:00 +10°C° 0 mm 1 mps 731 mmHg 47%
    07:00 +10°C° 0 mm 1 mps 731 mmHg 48%
    08:00 +10°C° 0 mm 1 mps 732 mmHg 48%
    09:00 +12°C° 0 mm 1 mps 732 mmHg 43%
    10:00 +14°C° 0 mm 1 mps 733 mmHg 38%
    11:00 +16°C° 0 mm 1 mps 733 mmHg 32%
    12:00 +16°C° 0 mm 1 mps 733 mmHg 31%
    13:00 +18°C° 0 mm 1 mps 733 mmHg 29%
    14:00 +19°C° 0 mm 1 mps 732 mmHg 28%
    15:00 +19°C° 0 mm 1 mps 732 mmHg 30%
    16:00 +18°C° 0 mm 1 mps 732 mmHg 33%
    17:00 +18°C° 0 mm 1 mps 732 mmHg 35%
    18:00 +15°C° 0 mm 0 mps 733 mmHg 38%
    19:00 +13°C° 0 mm 0 mps 733 mmHg 40%
    20:00 +12°C° 0 mm 0 mps 734 mmHg 42%
    21:00 +12°C° 0 mm 0 mps 734 mmHg 43%
    22:00 +11°C° 0 mm 0 mps 734 mmHg 43%
    23:00 +12°C° 0 mm 1 mps 734 mmHg 43%

    2 February, Sunday

    Time Temperature Precipitation Wind Pressure Humidity
    00:00 +12°C° 0 mm 1 mps 734 mmHg 43%
    01:00 +11°C° 0 mm 1 mps 734 mmHg 42%
    02:00 +11°C° 0 mm 1 mps 733 mmHg 42%
    03:00 +11°C° 0 mm 1 mps 733 mmHg 41%
    04:00 +10°C° 0 mm 1 mps 733 mmHg 41%
    05:00 +10°C° 0 mm 1 mps 733 mmHg 40%
    06:00 +10°C° 0 mm 1 mps 733 mmHg 40%
    07:00 +10°C° 0 mm 1 mps 733 mmHg 40%
    08:00 +10°C° 0 mm 1 mps 734 mmHg 40%
    09:00 +12°C° 0 mm 1 mps 734 mmHg 35%
    10:00 +14°C° 0 mm 1 mps 734 mmHg 29%
    11:00 +16°C° 0 mm 1 mps 734 mmHg 24%
    12:00 +18°C° 0 mm 1 mps 733 mmHg 23%
    13:00 +19°C° 0 mm 1 mps 733 mmHg 21%
    14:00 +20°C° 0 mm 1 mps 732 mmHg 20%
    15:00 +19°C° 0 mm 1 mps 732 mmHg 23%
    16:00 +19°C° 0 mm 1 mps 732 mmHg 25%
    17:00 +19°C° 0 mm 1 mps 732 mmHg 28%
    18:00 +16°C° 0 mm 1 mps 732 mmHg 29%
    19:00 +15°C° 0 mm 1 mps 733 mmHg 30%
    20:00 +13°C° 0 mm 1 mps 733 mmHg 31%
    21:00 +13°C° 0 mm 1 mps 733 mmHg 32%
    22:00 +12°C° 0 mm 1 mps 733 mmHg 32%
    23:00 +12°C° 0 mm 1 mps 733 mmHg 33%

    3 February, Monday

    Time Temperature Precipitation Wind Pressure Humidity
    00:00 +11°C° 0 mm 1 mps 733 mmHg 34%
    01:00 +11°C° 0 mm 1 mps 733 mmHg 34%
    02:00 +10°C° 0 mm 1 mps 732 mmHg 35%
    03:00 +10°C° 0 mm 1 mps 732 mmHg 36%
    04:00 +9°C° 0 mm 1 mps 732 mmHg 37%
    05:00 +9°C° 0 mm 1 mps 731 mmHg 38%
    06:00 +9°C° 0 mm 1 mps 732 mmHg 38%
    07:00 +10°C° 0 mm 1 mps 732 mmHg 39%
    08:00 +10°C° 0 mm 1 mps 732 mmHg 39%
    09:00 +12°C° 0 mm 1 mps 732 mmHg 34%
    10:00 +14°C° 0 mm 1 mps 732 mmHg 29%
    11:00 +16°C° 0 mm 1 mps 732 mmHg 23%
    12:00 +16°C° 0 mm 1 mps 731 mmHg 22%
    13:00 +18°C° 0 mm 1 mps 731 mmHg 21%
    14:00 +19°C° 0 mm 1 mps 730 mmHg 20%
    15:00 +19°C° 0 mm 1 mps 730 mmHg 22%
    16:00 +18°C° 0 mm 1 mps 729 mmHg 25%
    17:00 +18°C° 0 mm 1 mps 729 mmHg 28%
    18:00 +15°C° 0 mm 0 mps 729 mmHg 30%
    19:00 +13°C° 0 mm 0 mps 730 mmHg 31%
    20:00 +12°C° 0 mm 0 mps 730 mmHg 32%
    21:00 +12°C° 0 mm 0 mps 730 mmHg 33%
    22:00 +12°C° 0 mm 0 mps 730 mmHg 34%
    23:00 +13°C° 0 mm 1 mps 730 mmHg 34%
    Show more